Location: Glendale
(37.4556°N, 88.6714°W)
Time: 04:35:04
(UTC+00:00)

CSL-04 Rocket - Pass Details

Date: 08 December 2019
Orbit: 807 x 859 km, 99.0° (Epoch: 23 January)

Event Time Altitude Azimuth Distance (km) Brightness Sun altitude
Rises 23:58:12 0° 147° (SSE) 3,314 6.6 -15.8°
Reaches altitude 10° 00:00:37 10° 141° (SE) 2,384 5.8 -16.3°
Maximum altitude 00:05:35 44° 71° (ENE) 1,100 3.8 -17.2°
Drops below altitude 10° 00:10:35 10° 0° (N) 2,398 5.9 -18.2°
Sets 00:13:00 0° 354° (N) 3,337 6.7 -18.6°
